owner,sensor,date,latitude,longitude,vertical_datum,sea_water_temperature,qcFlag
LLOG,ioos:station:wmo:42940:1,2022-09-01T19:51:00Z,28.0786,-89.9817,10.0,57.3,11144222
LLOG,ioos:station:wmo:42940:1,2022-09-01T20:01:00Z,28.0786,-89.9817,10.0,59.9,11144222
LLOG,ioos:station:wmo:42940:1,2022-09-01T20:11:00Z,28.0786,-89.9817,10.0,59.0,11144222
LLOG,ioos:station:wmo:42940:1,2022-09-01T20:21:00Z,28.0786,-89.9817,10.0,57.7,11144222
LLOG,ioos:station:wmo:42940:1,2022-09-01T20:31:00Z,28.0786,-89.9817,10.0,57.2,11144222
LLOG,ioos:station:wmo:42940:1,2022-09-01T20:41:00Z,28.0786,-89.9817,10.0,60.4,11144222
LLOG,ioos:station:wmo:42940:1,2022-09-01T20:51:00Z,28.0786,-89.9817,10.0,60.1,11144222
LLOG,ioos:station:wmo:42940:1,2022-09-01T21:01:00Z,28.0786,-89.9817,10.0,59.1,11144222
LLOG,ioos:station:wmo:42940:1,2022-09-01T21:11:00Z,28.0786,-89.9817,10.0,58.9,11144222
LLOG,ioos:station:wmo:42940:1,2022-09-01T21:21:00Z,28.0786,-89.9817,10.0,58.9,11144222
LLOG,ioos:station:wmo:42940:1,2022-09-01T21:31:00Z,28.0786,-89.9817,10.0,59.6,11144222
LLOG,ioos:station:wmo:42940:1,2022-09-01T21:41:00Z,28.0786,-89.9817,10.0,59.4,11144222
LLOG,ioos:station:wmo:42940:1,2022-09-01T21:51:00Z,28.0786,-89.9817,10.0,58.5,11144222
LLOG,ioos:station:wmo:42940:1,2022-09-01T22:01:00Z,28.0786,-89.9817,10.0,57.4,11144222
LLOG,ioos:station:wmo:42940:1,2022-09-01T22:11:00Z,28.0786,-89.9817,10.0,57.3,11144222
LLOG,ioos:station:wmo:42940:1,2022-09-01T22:21:00Z,28.0786,-89.9817,10.0,55.4,11144222
LLOG,ioos:station:wmo:42940:1,2022-09-01T22:31:00Z,28.0786,-89.9817,10.0,57.9,11144222
LLOG,ioos:station:wmo:42940:1,2022-09-01T22:41:00Z,28.0786,-89.9817,10.0,56.9,11144222
LLOG,ioos:station:wmo:42940:1,2022-09-01T22:51:00Z,28.0786,-89.9817,10.0,57.9,11144222
LLOG,ioos:station:wmo:42940:1,2022-09-01T23:01:00Z,28.0786,-89.9817,10.0,57.3,11144222
LLOG,ioos:station:wmo:42940:1,2022-09-01T23:11:00Z,28.0786,-89.9817,10.0,57.6,11144222
LLOG,ioos:station:wmo:42940:1,2022-09-01T23:21:00Z,28.0786,-89.9817,10.0,57.4,11144222
LLOG,ioos:station:wmo:42940:1,2022-09-01T23:31:00Z,28.0786,-89.9817,10.0,56.5,11144222
LLOG,ioos:station:wmo:42940:1,2022-09-01T23:41:00Z,28.0786,-89.9817,10.0,56.6,11144222
LLOG,ioos:station:wmo:42940:1,2022-09-01T23:51:00Z,28.0786,-89.9817,10.0,59.0,11144222
LLOG,ioos:station:wmo:42940:1,2022-09-02T00:01:00Z,28.0786,-89.9817,10.0,57.4,11144222
LLOG,ioos:station:wmo:42940:1,2022-09-02T00:11:00Z,28.0786,-89.9817,10.0,57.1,11144222
LLOG,ioos:station:wmo:42940:1,2022-09-02T00:21:00Z,28.0786,-89.9817,10.0,57.9,11144222
LLOG,ioos:station:wmo:42940:1,2022-09-02T00:31:00Z,28.0786,-89.9817,10.0,56.2,11144222
LLOG,ioos:station:wmo:42940:1,2022-09-02T00:41:00Z,28.0786,-89.9817,10.0,56.2,11144222
LLOG,ioos:station:wmo:42940:1,2022-09-02T00:51:00Z,28.0786,-89.9817,10.0,52.6,11144222
LLOG,ioos:station:wmo:42940:1,2022-09-02T01:01:00Z,28.0786,-89.9817,10.0,58.5,11144222
LLOG,ioos:station:wmo:42940:1,2022-09-02T01:11:00Z,28.0786,-89.9817,10.0,58.4,11144222
LLOG,ioos:station:wmo:42940:1,2022-09-02T01:21:00Z,28.0786,-89.9817,10.0,56.7,11144222
LLOG,ioos:station:wmo:42940:1,2022-09-02T01:31:00Z,28.0786,-89.9817,10.0,59.5,11144222
LLOG,ioos:station:wmo:42940:1,2022-09-02T01:41:00Z,28.0786,-89.9817,10.0,60.6,11144222
LLOG,ioos:station:wmo:42940:1,2022-09-02T01:51:00Z,28.0786,-89.9817,10.0,59.1,11144222
LLOG,ioos:station:wmo:42940:1,2022-09-02T02:01:00Z,28.0786,-89.9817,10.0,62.2,11144222
LLOG,ioos:station:wmo:42940:1,2022-09-02T02:11:00Z,28.0786,-89.9817,10.0,55.5,11144222
LLOG,ioos:station:wmo:42940:1,2022-09-02T02:21:00Z,28.0786,-89.9817,10.0,58.6,11144222
LLOG,ioos:station:wmo:42940:1,2022-09-02T02:31:00Z,28.0786,-89.9817,10.0,49.2,11144222
LLOG,ioos:station:wmo:42940:1,2022-09-02T02:41:00Z,28.0786,-89.9817,10.0,53.8,11144222
LLOG,ioos:station:wmo:42940:1,2022-09-02T02:51:00Z,28.0786,-89.9817,10.0,53.5,11144222
LLOG,ioos:station:wmo:42940:1,2022-09-02T03:01:00Z,28.0786,-89.9817,10.0,57.4,11144222
LLOG,ioos:station:wmo:42940:1,2022-09-02T03:11:00Z,28.0786,-89.9817,10.0,58.1,11144222
LLOG,ioos:station:wmo:42940:1,2022-09-02T03:21:00Z,28.0786,-89.9817,10.0,58.5,11144222
LLOG,ioos:station:wmo:42940:1,2022-09-02T03:31:00Z,28.0786,-89.9817,10.0,57.3,11144222
LLOG,ioos:station:wmo:42940:1,2022-09-02T03:41:00Z,28.0786,-89.9817,10.0,57.0,11144222
LLOG,ioos:station:wmo:42940:1,2022-09-02T03:51:00Z,28.0786,-89.9817,10.0,56.7,11144222
LLOG,ioos:station:wmo:42940:1,2022-09-02T04:01:00Z,28.0786,-89.9817,10.0,56.0,11144222
LLOG,ioos:station:wmo:42940:1,2022-09-02T04:11:00Z,28.0786,-89.9817,10.0,59.0,11144222
LLOG,ioos:station:wmo:42940:1,2022-09-02T04:21:00Z,28.0786,-89.9817,10.0,58.2,11144222
LLOG,ioos:station:wmo:42940:1,2022-09-02T04:31:00Z,28.0786,-89.9817,10.0,54.2,11144222
LLOG,ioos:station:wmo:42940:1,2022-09-02T04:41:00Z,28.0786,-89.9817,10.0,57.7,11144222
LLOG,ioos:station:wmo:42940:1,2022-09-02T04:51:00Z,28.0786,-89.9817,10.0,59.3,11144222
LLOG,ioos:station:wmo:42940:1,2022-09-02T05:01:00Z,28.0786,-89.9817,10.0,59.0,11144222
LLOG,ioos:station:wmo:42940:1,2022-09-02T05:11:00Z,28.0786,-89.9817,10.0,55.6,11144222
LLOG,ioos:station:wmo:42940:1,2022-09-02T05:21:00Z,28.0786,-89.9817,10.0,54.0,11144222
LLOG,ioos:station:wmo:42940:1,2022-09-02T05:31:00Z,28.0786,-89.9817,10.0,58.8,11144222
LLOG,ioos:station:wmo:42940:1,2022-09-02T05:41:00Z,28.0786,-89.9817,10.0,53.6,11144222
LLOG,ioos:station:wmo:42940:1,2022-09-02T05:51:00Z,28.0786,-89.9817,10.0,45.5,11144222
LLOG,ioos:station:wmo:42940:1,2022-09-02T06:01:00Z,28.0786,-89.9817,10.0,56.0,11144222
LLOG,ioos:station:wmo:42940:1,2022-09-02T06:11:00Z,28.0786,-89.9817,10.0,56.5,11144222
LLOG,ioos:station:wmo:42940:1,2022-09-02T06:21:00Z,28.0786,-89.9817,10.0,56.4,11144222
LLOG,ioos:station:wmo:42940:1,2022-09-02T06:31:00Z,28.0786,-89.9817,10.0,54.8,11144222
LLOG,ioos:station:wmo:42940:1,2022-09-02T06:41:00Z,28.0786,-89.9817,10.0,53.9,11144222
LLOG,ioos:station:wmo:42940:1,2022-09-02T06:51:00Z,28.0786,-89.9817,10.0,53.6,11144222
LLOG,ioos:station:wmo:42940:1,2022-09-02T07:01:00Z,28.0786,-89.9817,10.0,54.0,11144222
LLOG,ioos:station:wmo:42940:1,2022-09-02T07:11:00Z,28.0786,-89.9817,10.0,53.0,11144222
LLOG,ioos:station:wmo:42940:1,2022-09-02T07:21:00Z,28.0786,-89.9817,10.0,50.4,11144222
LLOG,ioos:station:wmo:42940:1,2022-09-02T07:31:00Z,28.0786,-89.9817,10.0,53.6,11144222
LLOG,ioos:station:wmo:42940:1,2022-09-02T07:41:00Z,28.0786,-89.9817,10.0,51.8,11144222
LLOG,ioos:station:wmo:42940:1,2022-09-02T07:51:00Z,28.0786,-89.9817,10.0,52.8,11144222
LLOG,ioos:station:wmo:42940:1,2022-09-02T08:01:00Z,28.0786,-89.9817,10.0,48.6,11144222
LLOG,ioos:station:wmo:42940:1,2022-09-02T08:11:00Z,28.0786,-89.9817,10.0,50.7,11144222
LLOG,ioos:station:wmo:42940:1,2022-09-02T08:21:00Z,28.0786,-89.9817,10.0,52.4,11144222
LLOG,ioos:station:wmo:42940:1,2022-09-02T08:31:00Z,28.0786,-89.9817,10.0,52.0,11144222
LLOG,ioos:station:wmo:42940:1,2022-09-02T08:41:00Z,28.0786,-89.9817,10.0,52.9,11144222
LLOG,ioos:station:wmo:42940:1,2022-09-02T08:51:00Z,28.0786,-89.9817,10.0,51.7,11144222
LLOG,ioos:station:wmo:42940:1,2022-09-02T09:01:00Z,28.0786,-89.9817,10.0,49.8,11144222
LLOG,ioos:station:wmo:42940:1,2022-09-02T09:11:00Z,28.0786,-89.9817,10.0,51.7,11144222
LLOG,ioos:station:wmo:42940:1,2022-09-02T09:21:00Z,28.0786,-89.9817,10.0,46.3,11144222
LLOG,ioos:station:wmo:42940:1,2022-09-02T09:31:00Z,28.0786,-89.9817,10.0,51.6,11144222
LLOG,ioos:station:wmo:42940:1,2022-09-02T09:41:00Z,28.0786,-89.9817,10.0,52.8,11144222
LLOG,ioos:station:wmo:42940:1,2022-09-02T09:51:00Z,28.0786,-89.9817,10.0,50.6,11144222
LLOG,ioos:station:wmo:42940:1,2022-09-02T10:01:00Z,28.0786,-89.9817,10.0,51.8,11144222
LLOG,ioos:station:wmo:42940:1,2022-09-02T10:11:00Z,28.0786,-89.9817,10.0,51.0,11144222
LLOG,ioos:station:wmo:42940:1,2022-09-02T10:21:00Z,28.0786,-89.9817,10.0,52.0,11144222
LLOG,ioos:station:wmo:42940:1,2022-09-02T10:31:00Z,28.0786,-89.9817,10.0,51.9,11144222
LLOG,ioos:station:wmo:42940:1,2022-09-02T10:41:00Z,28.0786,-89.9817,10.0,52.8,11144222
LLOG,ioos:station:wmo:42940:1,2022-09-02T10:51:00Z,28.0786,-89.9817,10.0,50.1,11144222
LLOG,ioos:station:wmo:42940:1,2022-09-02T11:01:00Z,28.0786,-89.9817,10.0,50.0,11144222
LLOG,ioos:station:wmo:42940:1,2022-09-02T11:11:00Z,28.0786,-89.9817,10.0,48.3,11144222
LLOG,ioos:station:wmo:42940:1,2022-09-02T11:21:00Z,28.0786,-89.9817,10.0,50.6,11144222
LLOG,ioos:station:wmo:42940:1,2022-09-02T11:31:00Z,28.0786,-89.9817,10.0,51.3,11144222
LLOG,ioos:station:wmo:42940:1,2022-09-02T11:41:00Z,28.0786,-89.9817,10.0,46.1,11144222
LLOG,ioos:station:wmo:42940:1,2022-09-02T11:51:00Z,28.0786,-89.9817,10.0,44.8,11144222
LLOG,ioos:station:wmo:42940:1,2022-09-02T12:01:00Z,28.0786,-89.9817,10.0,51.6,11144222
LLOG,ioos:station:wmo:42940:1,2022-09-02T12:11:00Z,28.0786,-89.9817,10.0,49.6,11144222
LLOG,ioos:station:wmo:42940:1,2022-09-02T12:21:00Z,28.0786,-89.9817,10.0,53.3,11144222
LLOG,ioos:station:wmo:42940:1,2022-09-02T12:31:00Z,28.0786,-89.9817,10.0,52.3,11144222
LLOG,ioos:station:wmo:42940:1,2022-09-02T12:41:00Z,28.0786,-89.9817,10.0,47.5,11144222
LLOG,ioos:station:wmo:42940:1,2022-09-02T12:51:00Z,28.0786,-89.9817,10.0,57.8,11144222
LLOG,ioos:station:wmo:42940:1,2022-09-02T13:01:00Z,28.0786,-89.9817,10.0,53.5,11144222
LLOG,ioos:station:wmo:42940:1,2022-09-02T13:11:00Z,28.0786,-89.9817,10.0,52.5,11144222
LLOG,ioos:station:wmo:42940:1,2022-09-02T13:21:00Z,28.0786,-89.9817,10.0,54.5,11144222
LLOG,ioos:station:wmo:42940:1,2022-09-02T13:31:00Z,28.0786,-89.9817,10.0,54.8,11144222
LLOG,ioos:station:wmo:42940:1,2022-09-02T13:41:00Z,28.0786,-89.9817,10.0,59.0,11144222
LLOG,ioos:station:wmo:42940:1,2022-09-02T13:51:00Z,28.0786,-89.9817,10.0,58.5,11144222
LLOG,ioos:station:wmo:42940:1,2022-09-02T14:01:00Z,28.0786,-89.9817,10.0,56.0,11144222
LLOG,ioos:station:wmo:42940:1,2022-09-02T14:11:00Z,28.0786,-89.9817,10.0,55.8,11144222
LLOG,ioos:station:wmo:42940:1,2022-09-02T14:21:00Z,28.0786,-89.9817,10.0,59.9,11144222
LLOG,ioos:station:wmo:42940:1,2022-09-02T14:31:00Z,28.0786,-89.9817,10.0,59.5,11144222
LLOG,ioos:station:wmo:42940:1,2022-09-02T14:41:00Z,28.0786,-89.9817,10.0,63.5,11144222
LLOG,ioos:station:wmo:42940:1,2022-09-02T14:51:00Z,28.0786,-89.9817,10.0,59.4,11144222
LLOG,ioos:station:wmo:42940:1,2022-09-02T15:01:00Z,28.0786,-89.9817,10.0,57.9,11144222
LLOG,ioos:station:wmo:42940:1,2022-09-02T15:11:00Z,28.0786,-89.9817,10.0,56.8,11144222
LLOG,ioos:station:wmo:42940:1,2022-09-02T15:21:00Z,28.0786,-89.9817,10.0,60.9,11144222
LLOG,ioos:station:wmo:42940:1,2022-09-02T15:31:00Z,28.0786,-89.9817,10.0,56.8,11144222
LLOG,ioos:station:wmo:42940:1,2022-09-02T15:41:00Z,28.0786,-89.9817,10.0,61.1,11144222
LLOG,ioos:station:wmo:42940:1,2022-09-02T15:51:00Z,28.0786,-89.9817,10.0,62.0,11144222
LLOG,ioos:station:wmo:42940:1,2022-09-02T16:01:00Z,28.0786,-89.9817,10.0,61.9,11144222
LLOG,ioos:station:wmo:42940:1,2022-09-02T16:11:00Z,28.0786,-89.9817,10.0,64.8,11144222
LLOG,ioos:station:wmo:42940:1,2022-09-02T16:21:00Z,28.0786,-89.9817,10.0,58.0,11144222
LLOG,ioos:station:wmo:42940:1,2022-09-02T16:31:00Z,28.0786,-89.9817,10.0,60.6,11144222
LLOG,ioos:station:wmo:42940:1,2022-09-02T16:41:00Z,28.0786,-89.9817,10.0,64.7,11144222
LLOG,ioos:station:wmo:42940:1,2022-09-02T16:51:00Z,28.0786,-89.9817,10.0,64.6,11144222
LLOG,ioos:station:wmo:42940:1,2022-09-02T17:01:00Z,28.0786,-89.9817,10.0,57.2,11144222
LLOG,ioos:station:wmo:42940:1,2022-09-02T17:11:00Z,28.0786,-89.9817,10.0,56.6,11144222
LLOG,ioos:station:wmo:42940:1,2022-09-02T17:21:00Z,28.0786,-89.9817,10.0,55.1,11144222
LLOG,ioos:station:wmo:42940:1,2022-09-02T17:31:00Z,28.0786,-89.9817,10.0,53.0,11144222
LLOG,ioos:station:wmo:42940:1,2022-09-02T17:41:00Z,28.0786,-89.9817,10.0,62.9,11144222
LLOG,ioos:station:wmo:42940:1,2022-09-02T17:51:00Z,28.0786,-89.9817,10.0,60.1,11144222
LLOG,ioos:station:wmo:42940:1,2022-09-02T18:01:00Z,28.0786,-89.9817,10.0,57.7,11144222
LLOG,ioos:station:wmo:42940:1,2022-09-02T18:11:00Z,28.0786,-89.9817,10.0,57.3,11144222
LLOG,ioos:station:wmo:42940:1,2022-09-02T18:21:00Z,28.0786,-89.9817,10.0,57.6,11144222
LLOG,ioos:station:wmo:42940:1,2022-09-02T18:31:00Z,28.0786,-89.9817,10.0,54.3,11144222
LLOG,ioos:station:wmo:42940:1,2022-09-02T18:41:00Z,28.0786,-89.9817,10.0,57.8,11144222
LLOG,ioos:station:wmo:42940:1,2022-09-02T18:51:00Z,28.0786,-89.9817,10.0,58.0,11144222
LLOG,ioos:station:wmo:42940:1,2022-09-02T19:01:00Z,28.0786,-89.9817,10.0,58.4,11144222
LLOG,ioos:station:wmo:42940:1,2022-09-02T19:11:00Z,28.0786,-89.9817,10.0,60.0,11144222
LLOG,ioos:station:wmo:42940:1,2022-09-02T19:21:00Z,28.0786,-89.9817,10.0,61.6,11144222
LLOG,ioos:station:wmo:42940:1,2022-09-02T19:31:00Z,28.0786,-89.9817,10.0,55.6,11144222
LLOG,ioos:station:wmo:42940:1,2022-09-02T19:41:00Z,28.0786,-89.9817,10.0,58.2,11144222
LLOG,ioos:station:wmo:42940:1,2022-09-02T19:51:00Z,28.0786,-89.9817,10.0,55.7,11144222
LLOG,ioos:station:wmo:42940:1,2022-09-02T20:01:00Z,28.0786,-89.9817,10.0,61.9,11144222
LLOG,ioos:station:wmo:42940:1,2022-09-02T20:11:00Z,28.0786,-89.9817,10.0,57.2,11144222
LLOG,ioos:station:wmo:42940:1,2022-09-02T20:21:00Z,28.0786,-89.9817,10.0,58.6,11144222
LLOG,ioos:station:wmo:42940:1,2022-09-02T20:31:00Z,28.0786,-89.9817,10.0,58.6,11144222
LLOG,ioos:station:wmo:42940:1,2022-09-02T20:41:00Z,28.0786,-89.9817,10.0,57.6,11144222
LLOG,ioos:station:wmo:42940:1,2022-09-02T20:51:00Z,28.0786,-89.9817,10.0,57.5,11144222
LLOG,ioos:station:wmo:42940:1,2022-09-02T21:01:00Z,28.0786,-89.9817,10.0,56.8,11144222
LLOG,ioos:station:wmo:42940:1,2022-09-02T21:11:00Z,28.0786,-89.9817,10.0,56.4,11144222
LLOG,ioos:station:wmo:42940:1,2022-09-02T21:21:00Z,28.0786,-89.9817,10.0,58.0,11144222
LLOG,ioos:station:wmo:42940:1,2022-09-02T21:31:00Z,28.0786,-89.9817,10.0,57.7,11144222
LLOG,ioos:station:wmo:42940:1,2022-09-02T21:41:00Z,28.0786,-89.9817,10.0,57.5,11144222
LLOG,ioos:station:wmo:42940:1,2022-09-02T21:51:00Z,28.0786,-89.9817,10.0,59.2,11144222
LLOG,ioos:station:wmo:42940:1,2022-09-02T22:01:00Z,28.0786,-89.9817,10.0,66.1,11144222
LLOG,ioos:station:wmo:42940:1,2022-09-02T22:11:00Z,28.0786,-89.9817,10.0,62.1,11144222
LLOG,ioos:station:wmo:42940:1,2022-09-02T22:21:00Z,28.0786,-89.9817,10.0,62.0,11144222
LLOG,ioos:station:wmo:42940:1,2022-09-02T22:31:00Z,28.0786,-89.9817,10.0,58.2,11144222
LLOG,ioos:station:wmo:42940:1,2022-09-02T22:41:00Z,28.0786,-89.9817,10.0,59.0,11144222
LLOG,ioos:station:wmo:42940:1,2022-09-02T22:51:00Z,28.0786,-89.9817,10.0,58.6,11144222
LLOG,ioos:station:wmo:42940:1,2022-09-02T23:01:00Z,28.0786,-89.9817,10.0,57.8,11144222
LLOG,ioos:station:wmo:42940:1,2022-09-02T23:11:00Z,28.0786,-89.9817,10.0,57.2,11144222
LLOG,ioos:station:wmo:42940:1,2022-09-02T23:21:00Z,28.0786,-89.9817,10.0,60.7,11144222
LLOG,ioos:station:wmo:42940:1,2022-09-02T23:31:00Z,28.0786,-89.9817,10.0,60.0,11144222
LLOG,ioos:station:wmo:42940:1,2022-09-02T23:41:00Z,28.0786,-89.9817,10.0,63.0,11144222
LLOG,ioos:station:wmo:42940:1,2022-09-02T23:51:00Z,28.0786,-89.9817,10.0,57.2,11144222
LLOG,ioos:station:wmo:42940:1,2022-09-03T00:01:00Z,28.0786,-89.9817,10.0,63.0,11144222
LLOG,ioos:station:wmo:42940:1,2022-09-03T00:11:00Z,28.0786,-89.9817,10.0,59.5,11144222
LLOG,ioos:station:wmo:42940:1,2022-09-03T00:21:00Z,28.0786,-89.9817,10.0,58.8,11144222
LLOG,ioos:station:wmo:42940:1,2022-09-03T00:31:00Z,28.0786,-89.9817,10.0,58.4,11144222
LLOG,ioos:station:wmo:42940:1,2022-09-03T00:41:00Z,28.0786,-89.9817,10.0,59.0,11144222
LLOG,ioos:station:wmo:42940:1,2022-09-03T00:51:00Z,28.0786,-89.9817,10.0,58.1,11144222
LLOG,ioos:station:wmo:42940:1,2022-09-03T01:01:00Z,28.0786,-89.9817,10.0,58.5,11144222
LLOG,ioos:station:wmo:42940:1,2022-09-03T01:11:00Z,28.0786,-89.9817,10.0,57.3,11144222
LLOG,ioos:station:wmo:42940:1,2022-09-03T01:21:00Z,28.0786,-89.9817,10.0,63.2,11144222
LLOG,ioos:station:wmo:42940:1,2022-09-03T01:31:00Z,28.0786,-89.9817,10.0,62.9,11144222
LLOG,ioos:station:wmo:42940:1,2022-09-03T01:41:00Z,28.0786,-89.9817,10.0,62.9,11144222
LLOG,ioos:station:wmo:42940:1,2022-09-03T01:51:00Z,28.0786,-89.9817,10.0,60.2,11144222
LLOG,ioos:station:wmo:42940:1,2022-09-03T02:01:00Z,28.0786,-89.9817,10.0,60.1,11144222
LLOG,ioos:station:wmo:42940:1,2022-09-03T02:11:00Z,28.0786,-89.9817,10.0,60.3,11144222
LLOG,ioos:station:wmo:42940:1,2022-09-03T02:21:00Z,28.0786,-89.9817,10.0,59.5,11144222
LLOG,ioos:station:wmo:42940:1,2022-09-03T02:31:00Z,28.0786,-89.9817,10.0,60.5,11144222
LLOG,ioos:station:wmo:42940:1,2022-09-03T02:41:00Z,28.0786,-89.9817,10.0,60.2,11144222
LLOG,ioos:station:wmo:42940:1,2022-09-03T02:51:00Z,28.0786,-89.9817,10.0,60.5,11144222
LLOG,ioos:station:wmo:42940:1,2022-09-03T03:01:00Z,28.0786,-89.9817,10.0,60.8,11144222
LLOG,ioos:station:wmo:42940:1,2022-09-03T03:11:00Z,28.0786,-89.9817,10.0,60.2,11144222
LLOG,ioos:station:wmo:42940:1,2022-09-03T03:21:00Z,28.0786,-89.9817,10.0,56.9,11144222
LLOG,ioos:station:wmo:42940:1,2022-09-03T03:31:00Z,28.0786,-89.9817,10.0,57.4,11144222
LLOG,ioos:station:wmo:42940:1,2022-09-03T03:41:00Z,28.0786,-89.9817,10.0,57.8,11144222
LLOG,ioos:station:wmo:42940:1,2022-09-03T03:51:00Z,28.0786,-89.9817,10.0,57.0,11144222
LLOG,ioos:station:wmo:42940:1,2022-09-03T04:01:00Z,28.0786,-89.9817,10.0,57.0,11144222
LLOG,ioos:station:wmo:42940:1,2022-09-03T04:11:00Z,28.0786,-89.9817,10.0,56.8,11144222
LLOG,ioos:station:wmo:42940:1,2022-09-03T04:21:00Z,28.0786,-89.9817,10.0,55.9,11144222
LLOG,ioos:station:wmo:42940:1,2022-09-03T04:31:00Z,28.0786,-89.9817,10.0,56.7,11144222
LLOG,ioos:station:wmo:42940:1,2022-09-03T04:41:00Z,28.0786,-89.9817,10.0,57.3,11144222
LLOG,ioos:station:wmo:42940:1,2022-09-03T04:51:00Z,28.0786,-89.9817,10.0,56.9,11144222
LLOG,ioos:station:wmo:42940:1,2022-09-03T05:01:00Z,28.0786,-89.9817,10.0,59.4,11144222
LLOG,ioos:station:wmo:42940:1,2022-09-03T05:11:00Z,28.0786,-89.9817,10.0,59.4,11144222
LLOG,ioos:station:wmo:42940:1,2022-09-03T05:21:00Z,28.0786,-89.9817,10.0,57.1,11144222
LLOG,ioos:station:wmo:42940:1,2022-09-03T05:31:00Z,28.0786,-89.9817,10.0,58.0,11144222
LLOG,ioos:station:wmo:42940:1,2022-09-03T05:41:00Z,28.0786,-89.9817,10.0,57.9,11144222
LLOG,ioos:station:wmo:42940:1,2022-09-03T05:51:00Z,28.0786,-89.9817,10.0,53.4,11144222
LLOG,ioos:station:wmo:42940:1,2022-09-03T06:01:00Z,28.0786,-89.9817,10.0,53.9,11144222
LLOG,ioos:station:wmo:42940:1,2022-09-03T06:11:00Z,28.0786,-89.9817,10.0,59.7,11144222
LLOG,ioos:station:wmo:42940:1,2022-09-03T06:21:00Z,28.0786,-89.9817,10.0,54.3,11144222
LLOG,ioos:station:wmo:42940:1,2022-09-03T06:31:00Z,28.0786,-89.9817,10.0,55.5,11144222
LLOG,ioos:station:wmo:42940:1,2022-09-03T06:41:00Z,28.0786,-89.9817,10.0,54.6,11144222
LLOG,ioos:station:wmo:42940:1,2022-09-03T06:51:00Z,28.0786,-89.9817,10.0,60.5,11144222
LLOG,ioos:station:wmo:42940:1,2022-09-03T07:01:00Z,28.0786,-89.9817,10.0,54.9,11144222
LLOG,ioos:station:wmo:42940:1,2022-09-03T07:11:00Z,28.0786,-89.9817,10.0,61.5,11144222
LLOG,ioos:station:wmo:42940:1,2022-09-03T07:21:00Z,28.0786,-89.9817,10.0,59.1,11144222
LLOG,ioos:station:wmo:42940:1,2022-09-03T07:31:00Z,28.0786,-89.9817,10.0,55.0,11144222
LLOG,ioos:station:wmo:42940:1,2022-09-03T07:41:00Z,28.0786,-89.9817,10.0,51.3,11144222
LLOG,ioos:station:wmo:42940:1,2022-09-03T07:51:00Z,28.0786,-89.9817,10.0,52.9,11144222
LLOG,ioos:station:wmo:42940:1,2022-09-03T08:01:00Z,28.0786,-89.9817,10.0,51.6,11144222
LLOG,ioos:station:wmo:42940:1,2022-09-03T08:11:00Z,28.0786,-89.9817,10.0,55.7,11144222
LLOG,ioos:station:wmo:42940:1,2022-09-03T08:21:00Z,28.0786,-89.9817,10.0,60.1,11144222
LLOG,ioos:station:wmo:42940:1,2022-09-03T08:31:00Z,28.0786,-89.9817,10.0,55.3,11144222
LLOG,ioos:station:wmo:42940:1,2022-09-03T08:41:00Z,28.0786,-89.9817,10.0,51.9,11144222
LLOG,ioos:station:wmo:42940:1,2022-09-03T08:51:00Z,28.0786,-89.9817,10.0,57.0,11144222
LLOG,ioos:station:wmo:42940:1,2022-09-03T09:01:00Z,28.0786,-89.9817,10.0,55.1,11144222
LLOG,ioos:station:wmo:42940:1,2022-09-03T09:11:00Z,28.0786,-89.9817,10.0,54.7,11144222
LLOG,ioos:station:wmo:42940:1,2022-09-03T09:21:00Z,28.0786,-89.9817,10.0,58.5,11144222
LLOG,ioos:station:wmo:42940:1,2022-09-03T09:31:00Z,28.0786,-89.9817,10.0,57.3,11144222
LLOG,ioos:station:wmo:42940:1,2022-09-03T09:41:00Z,28.0786,-89.9817,10.0,57.3,11144222
LLOG,ioos:station:wmo:42940:1,2022-09-03T09:51:00Z,28.0786,-89.9817,10.0,58.5,11144222
LLOG,ioos:station:wmo:42940:1,2022-09-03T10:01:00Z,28.0786,-89.9817,10.0,57.3,11144222
LLOG,ioos:station:wmo:42940:1,2022-09-03T10:11:00Z,28.0786,-89.9817,10.0,57.6,11144222
LLOG,ioos:station:wmo:42940:1,2022-09-03T10:21:00Z,28.0786,-89.9817,10.0,56.6,11144222
LLOG,ioos:station:wmo:42940:1,2022-09-03T10:31:00Z,28.0786,-89.9817,10.0,57.5,11144222
LLOG,ioos:station:wmo:42940:1,2022-09-03T10:41:00Z,28.0786,-89.9817,10.0,56.8,11144222
LLOG,ioos:station:wmo:42940:1,2022-09-03T10:51:00Z,28.0786,-89.9817,10.0,57.1,11144222
LLOG,ioos:station:wmo:42940:1,2022-09-03T11:01:00Z,28.0786,-89.9817,10.0,57.0,11144222
LLOG,ioos:station:wmo:42940:1,2022-09-03T11:11:00Z,28.0786,-89.9817,10.0,52.6,11144222
LLOG,ioos:station:wmo:42940:1,2022-09-03T11:21:00Z,28.0786,-89.9817,10.0,55.6,11144222
LLOG,ioos:station:wmo:42940:1,2022-09-03T11:31:00Z,28.0786,-89.9817,10.0,59.5,11144222
LLOG,ioos:station:wmo:42940:1,2022-09-03T11:41:00Z,28.0786,-89.9817,10.0,56.4,11144222
LLOG,ioos:station:wmo:42940:1,2022-09-03T11:51:00Z,28.0786,-89.9817,10.0,60.0,11144222
LLOG,ioos:station:wmo:42940:1,2022-09-03T12:01:00Z,28.0786,-89.9817,10.0,57.9,11144222
LLOG,ioos:station:wmo:42940:1,2022-09-03T12:11:00Z,28.0786,-89.9817,10.0,58.0,11144222
LLOG,ioos:station:wmo:42940:1,2022-09-03T12:21:00Z,28.0786,-89.9817,10.0,57.5,11144222
LLOG,ioos:station:wmo:42940:1,2022-09-03T12:31:00Z,28.0786,-89.9817,10.0,57.6,11144222
LLOG,ioos:station:wmo:42940:1,2022-09-03T12:41:00Z,28.0786,-89.9817,10.0,58.8,11144222
LLOG,ioos:station:wmo:42940:1,2022-09-03T12:51:00Z,28.0786,-89.9817,10.0,62.3,11144222
LLOG,ioos:station:wmo:42940:1,2022-09-03T13:01:00Z,28.0786,-89.9817,10.0,56.4,11144222
LLOG,ioos:station:wmo:42940:1,2022-09-03T13:11:00Z,28.0786,-89.9817,10.0,55.6,11144222
LLOG,ioos:station:wmo:42940:1,2022-09-03T13:21:00Z,28.0786,-89.9817,10.0,61.5,11144222
LLOG,ioos:station:wmo:42940:1,2022-09-03T13:31:00Z,28.0786,-89.9817,10.0,56.0,11144222
LLOG,ioos:station:wmo:42940:1,2022-09-03T13:41:00Z,28.0786,-89.9817,10.0,56.2,11144222
LLOG,ioos:station:wmo:42940:1,2022-09-03T13:51:00Z,28.0786,-89.9817,10.0,56.0,11144222
LLOG,ioos:station:wmo:42940:1,2022-09-03T14:01:00Z,28.0786,-89.9817,10.0,55.0,11144222
LLOG,ioos:station:wmo:42940:1,2022-09-03T14:11:00Z,28.0786,-89.9817,10.0,55.3,11144222
LLOG,ioos:station:wmo:42940:1,2022-09-03T14:21:00Z,28.0786,-89.9817,10.0,56.6,11144222
LLOG,ioos:station:wmo:42940:1,2022-09-03T14:31:00Z,28.0786,-89.9817,10.0,55.7,11144222
LLOG,ioos:station:wmo:42940:1,2022-09-03T14:41:00Z,28.0786,-89.9817,10.0,55.8,11144222
LLOG,ioos:station:wmo:42940:1,2022-09-03T14:51:00Z,28.0786,-89.9817,10.0,55.5,11144222
LLOG,ioos:station:wmo:42940:1,2022-09-03T15:01:00Z,28.0786,-89.9817,10.0,59.4,11144222
LLOG,ioos:station:wmo:42940:1,2022-09-03T15:41:00Z,28.0786,-89.9817,10.0,56.6,11144222
LLOG,ioos:station:wmo:42940:1,2022-09-03T15:51:00Z,28.0786,-89.9817,10.0,55.8,11144222
LLOG,ioos:station:wmo:42940:1,2022-09-03T16:01:00Z,28.0786,-89.9817,10.0,56.3,11144222
LLOG,ioos:station:wmo:42940:1,2022-09-03T16:11:00Z,28.0786,-89.9817,10.0,55.8,11144222
LLOG,ioos:station:wmo:42940:1,2022-09-03T16:21:00Z,28.0786,-89.9817,10.0,57.9,11144222
LLOG,ioos:station:wmo:42940:1,2022-09-03T16:31:00Z,28.0786,-89.9817,10.0,55.5,11144222
LLOG,ioos:station:wmo:42940:1,2022-09-03T16:41:00Z,28.0786,-89.9817,10.0,59.2,11144222
LLOG,ioos:station:wmo:42940:1,2022-09-03T16:51:00Z,28.0786,-89.9817,10.0,55.6,11144222
LLOG,ioos:station:wmo:42940:1,2022-09-03T17:01:00Z,28.0786,-89.9817,10.0,53.6,11144222
LLOG,ioos:station:wmo:42940:1,2022-09-03T17:11:00Z,28.0786,-89.9817,10.0,58.0,11144222
LLOG,ioos:station:wmo:42940:1,2022-09-03T17:21:00Z,28.0786,-89.9817,10.0,56.6,11144222